When you browse on this site, cookies collect data to enhance your experience and personalize the content and advertising you see.
Visit our Privacy Policy to learn more. By continuing to use the site, you agree to this use of cookies and data.
  • In Spain
  • List of Countries
  • For 7 days
  • Water Temperature
  • Weather Map
  • Weather Widgets
  • user-avatar
    Login

    Hourly Weather Dhamar

    Today, 23 August, Friday

    Time Temperature Precipitation Wind Pressure Humidity
    00:00 +19°C° 0 mm 0 mps 583 mmHg 68%
    01:00 +19°C° 0 mm 0 mps 582 mmHg 68%
    02:00 +18°C° 0 mm 0 mps 582 mmHg 67%
    03:00 +18°C° 0 mm 0 mps 581 mmHg 66%
    04:00 +18°C° 0 mm 0 mps 581 mmHg 65%
    05:00 +18°C° 0 mm 0 mps 582 mmHg 65%
    06:00 +17°C° 0 mm 0 mps 582 mmHg 64%
    07:00 +21°C° 0 mm 1 mps 583 mmHg 57%
    08:00 +23°C° 0 mm 1 mps 584 mmHg 49%
    09:00 +24°C° 0 mm 1 mps 585 mmHg 41%
    10:00 +25°C° 0.1 mm 2 mps 585 mmHg 39%
    11:00 +26°C° 0.1 mm 2 mps 585 mmHg 36%
    12:00 +27°C° 0.1 mm 3 mps 586 mmHg 34%
    13:00 +26°C° 1.2 mm 3 mps 585 mmHg 38%
    14:00 +25°C° 1.2 mm 4 mps 584 mmHg 43%
    15:00 +25°C° 1.2 mm 4 mps 583 mmHg 48%
    16:00 +23°C° 1.1 mm 4 mps 583 mmHg 52%
    17:00 +22°C° 1.1 mm 3 mps 583 mmHg 56%
    18:00 +21°C° 1.1 mm 3 mps 583 mmHg 60%
    19:00 +21°C° 0.4 mm 2 mps 583 mmHg 61%
    20:00 +21°C° 0.4 mm 2 mps 583 mmHg 63%
    21:00 +21°C° 0.4 mm 1 mps 583 mmHg 65%
    22:00 +21°C° 0 mm 1 mps 583 mmHg 63%
    23:00 +21°C° 0 mm 1 mps 583 mmHg 62%

    Tomorrow, 24 August, Saturday

    Time Temperature Precipitation Wind Pressure Humidity
    00:00 +21°C° 0 mm 1 mps 583 mmHg 61%
    01:00 +21°C° 0 mm 1 mps 583 mmHg 60%
    02:00 +20°C° 0 mm 1 mps 582 mmHg 60%
    03:00 +18°C° 0 mm 0 mps 582 mmHg 59%
    04:00 +18°C° 0 mm 0 mps 582 mmHg 58%
    05:00 +18°C° 0 mm 0 mps 582 mmHg 57%
    06:00 +17°C° 0 mm 0 mps 583 mmHg 56%
    07:00 +21°C° 0 mm 1 mps 583 mmHg 48%
    08:00 +23°C° 0 mm 1 mps 584 mmHg 40%
    09:00 +24°C° 0 mm 1 mps 585 mmHg 32%
    10:00 +25°C° 0 mm 2 mps 586 mmHg 32%
    11:00 +25°C° 0 mm 2 mps 586 mmHg 33%
    12:00 +26°C° 0 mm 3 mps 586 mmHg 33%
    13:00 +25°C° 0.1 mm 3 mps 585 mmHg 37%
    14:00 +25°C° 0.1 mm 4 mps 584 mmHg 41%
    15:00 +25°C° 0.1 mm 5 mps 583 mmHg 44%
    16:00 +23°C° 0.5 mm 4 mps 583 mmHg 49%
    17:00 +22°C° 0.5 mm 4 mps 583 mmHg 53%
    18:00 +21°C° 0.5 mm 3 mps 583 mmHg 57%
    19:00 +21°C° 0.1 mm 3 mps 583 mmHg 60%
    20:00 +20°C° 0.1 mm 2 mps 583 mmHg 62%
    21:00 +21°C° 0.1 mm 1 mps 583 mmHg 64%
    22:00 +21°C° 0 mm 1 mps 583 mmHg 63%
    23:00 +21°C° 0 mm 1 mps 583 mmHg 61%

    Day after tomorrow, 25 August, Sunday

    Time Temperature Precipitation Wind Pressure Humidity
    00:00 +21°C° 0 mm 1 mps 583 mmHg 59%
    01:00 +20°C° 0 mm 1 mps 582 mmHg 59%
    02:00 +20°C° 0 mm 1 mps 582 mmHg 58%
    03:00 +20°C° 0 mm 1 mps 581 mmHg 58%
    04:00 +17°C° 0 mm 0 mps 582 mmHg 58%
    05:00 +17°C° 0 mm 0 mps 582 mmHg 58%
    06:00 +17°C° 0 mm 0 mps 582 mmHg 58%
    07:00 +20°C° 0 mm 1 mps 583 mmHg 54%
    08:00 +22°C° 0 mm 1 mps 584 mmHg 50%
    09:00 +23°C° 0 mm 2 mps 584 mmHg 46%
    10:00 +24°C° 0 mm 2 mps 585 mmHg 44%
    11:00 +25°C° 0 mm 3 mps 585 mmHg 41%
    12:00 +25°C° 0 mm 3 mps 585 mmHg 39%
    13:00 +25°C° 0.3 mm 3 mps 584 mmHg 43%
    14:00 +24°C° 0.3 mm 3 mps 583 mmHg 47%
    15:00 +23°C° 0.3 mm 2 mps 582 mmHg 51%
    16:00 +21°C° 1 mm 3 mps 582 mmHg 57%
    17:00 +20°C° 1 mm 3 mps 582 mmHg 63%
    18:00 +20°C° 1 mm 4 mps 581 mmHg 69%
    19:00 +19°C° 0.3 mm 3 mps 582 mmHg 72%
    20:00 +19°C° 0.3 mm 2 mps 582 mmHg 74%
    21:00 +19°C° 0.3 mm 1 mps 582 mmHg 77%
    22:00 +20°C° 0 mm 1 mps 582 mmHg 74%
    23:00 +20°C° 0 mm 1 mps 582 mmHg 72%

    26 August, Monday

    Time Temperature Precipitation Wind Pressure Humidity
    00:00 +20°C° 0 mm 1 mps 582 mmHg 69%
    01:00 +20°C° 0 mm 1 mps 581 mmHg 68%
    02:00 +20°C° 0 mm 1 mps 581 mmHg 68%
    03:00 +19°C° 0 mm 1 mps 580 mmHg 67%
    04:00 +19°C° 0 mm 1 mps 580 mmHg 66%
    05:00 +19°C° 0 mm 1 mps 581 mmHg 65%
    06:00 +19°C° 0 mm 1 mps 581 mmHg 65%
    07:00 +21°C° 0 mm 1 mps 582 mmHg 54%
    08:00 +23°C° 0 mm 1 mps 584 mmHg 44%
    09:00 +25°C° 0 mm 2 mps 585 mmHg 34%
    10:00 +26°C° 0 mm 2 mps 585 mmHg 32%
    11:00 +27°C° 0 mm 3 mps 585 mmHg 31%
    12:00 +27°C° 0 mm 3 mps 585 mmHg 29%
    13:00 +27°C° 1 mm 4 mps 584 mmHg 37%
    14:00 +26°C° 1 mm 4 mps 583 mmHg 44%
    15:00 +25°C° 1 mm 4 mps 582 mmHg 52%
    16:00 +23°C° 1.3 mm 4 mps 582 mmHg 54%
    17:00 +22°C° 1.3 mm 3 mps 582 mmHg 56%
    18:00 +23°C° 1.3 mm 2 mps 582 mmHg 59%
    19:00 +23°C° 0.2 mm 2 mps 582 mmHg 61%
    20:00 +22°C° 0.2 mm 1 mps 582 mmHg 64%
    21:00 +20°C° 0.2 mm 0 mps 583 mmHg 66%
    22:00 +22°C° 0 mm 1 mps 582 mmHg 66%
    23:00 +22°C° 0 mm 1 mps 582 mmHg 65%

    27 August, Tuesday

    Time Temperature Precipitation Wind Pressure Humidity
    00:00 +21°C° 0 mm 1 mps 582 mmHg 65%
    01:00 +21°C° 0 mm 1 mps 582 mmHg 63%
    02:00 +21°C° 0 mm 1 mps 581 mmHg 61%
    03:00 +21°C° 0 mm 1 mps 581 mmHg 60%
    04:00 +20°C° 0 mm 1 mps 581 mmHg 61%
    05:00 +18°C° 0 mm 0 mps 581 mmHg 62%
    06:00 +17°C° 0 mm 0 mps 581 mmHg 63%
    07:00 +21°C° 0 mm 1 mps 582 mmHg 55%
    08:00 +23°C° 0 mm 1 mps 583 mmHg 47%
    09:00 +25°C° 0 mm 1 mps 585 mmHg 39%
    10:00 +25°C° 0 mm 2 mps 584 mmHg 39%
    11:00 +26°C° 0 mm 3 mps 584 mmHg 40%
    12:00 +26°C° 0 mm 4 mps 584 mmHg 40%
    13:00 +26°C° 0.7 mm 4 mps 584 mmHg 43%
    14:00 +25°C° 0.7 mm 4 mps 583 mmHg 46%
    15:00 +25°C° 0.7 mm 4 mps 582 mmHg 49%
    16:00 +23°C° 0.9 mm 4 mps 582 mmHg 52%
    17:00 +22°C° 0.9 mm 3 mps 582 mmHg 56%
    18:00 +22°C° 0.9 mm 3 mps 581 mmHg 59%
    19:00 +21°C° 0.1 mm 2 mps 582 mmHg 62%
    20:00 +22°C° 0.1 mm 1 mps 582 mmHg 65%
    21:00 +22°C° 0.1 mm 1 mps 582 mmHg 68%
    22:00 +22°C° 0 mm 1 mps 582 mmHg 66%
    23:00 +22°C° 0 mm 1 mps 582 mmHg 65%

    28 August, Wednesday

    Time Temperature Precipitation Wind Pressure Humidity
    00:00 +22°C° 0 mm 1 mps 582 mmHg 64%
    01:00 +21°C° 0 mm 1 mps 581 mmHg 65%
    02:00 +19°C° 0 mm 0 mps 581 mmHg 65%
    03:00 +19°C° 0 mm 0 mps 581 mmHg 66%
    04:00 +18°C° 0 mm 0 mps 581 mmHg 68%
    05:00 +18°C° 0 mm 0 mps 581 mmHg 69%
    06:00 +17°C° 0 mm 0 mps 581 mmHg 70%
    07:00 +21°C° 0 mm 1 mps 582 mmHg 62%
    08:00 +22°C° 0 mm 1 mps 583 mmHg 55%
    09:00 +24°C° 0 mm 2 mps 584 mmHg 47%
    10:00 +24°C° 0.4 mm 2 mps 584 mmHg 46%
    11:00 +24°C° 0.4 mm 3 mps 583 mmHg 46%
    12:00 +25°C° 0.4 mm 3 mps 583 mmHg 45%
    13:00 +24°C° 1.4 mm 3 mps 582 mmHg 49%
    14:00 +22°C° 1.4 mm 3 mps 582 mmHg 53%
    15:00 +21°C° 1.4 mm 3 mps 581 mmHg 58%
    16:00 +20°C° 0.8 mm 3 mps 581 mmHg 59%
    17:00 +20°C° 0.8 mm 3 mps 581 mmHg 61%
    18:00 +20°C° 0.8 mm 2 mps 581 mmHg 62%
    19:00 +20°C° 0.2 mm 2 mps 581 mmHg 64%
    20:00 +20°C° 0.2 mm 1 mps 581 mmHg 65%
    21:00 +20°C° 0.2 mm 1 mps 582 mmHg 67%
    22:00 +20°C° 0 mm 1 mps 582 mmHg 66%
    23:00 +20°C° 0 mm 1 mps 581 mmHg 64%
    Show more